| time (UTC) | temp F | wind direction | speed knots | gust knots | rain 1hr in | rain 24hr in | rain mn in | humidity % | barometer mb |
| 20260509031926 | 46 | 310 | 1.7 | 0.0 | 0.00 | 0.00 | 0.00 | 87 | |
| 20260509021926 | 46 | 300 | 1.7 | 0.0 | 0.00 | 0.00 | 0.00 | 87 | |
| 20260509012027 | 46 | 290 | 1.7 | 0.0 | 0.00 | 0.00 | 0.00 | 87 | |
| 20260509001925 | 46 | 310 | 1.7 | 0.0 | 0.00 | 0.00 | 0.00 | 87 | |
| 20260508231925 | 46 | 320 | 4.3 | 0.0 | 0.00 | 0.00 | 0.00 | 87 | |
| 20260508222125 | 46 | 320 | 4.3 | 0.0 | 0.00 | 0.00 | 0.00 | 87 | |
| 20260508211926 | 46 | 340 | 4.3 | 0.0 | 0.00 | 0.00 | 0.00 | 87 | |
| 20260508201927 | 48 | 350 | 6.1 | 0.0 | 0.00 | 0.00 | 0.00 | 81 | |
| 20260508192031 | 50 | 20 | 6.1 | 0.0 | 0.00 | 0.00 | 0.00 | 76 | |
| 20260508181925 | 52 | 20 | 7.8 | 0.0 | 0.00 | 0.00 | 0.00 | 71 | |
| 20260508171925 | 55 | 20 | 6.1 | 0.0 | 0.00 | 0.00 | 0.00 | 62 | |
| 20260508162126 | 57 | 30 | 6.1 | 0.0 | 0.00 | 0.00 | 0.00 | 58 | |
| 20260508151927 | 57 | 10 | 6.1 | 0.0 | 0.00 | 0.00 | 0.00 | 58 | |
| 20260508141926 | 55 | 10 | 7.8 | 0.0 | 0.00 | 0.00 | 0.00 | 62 | |
| 20260508132031 | 54 | 350 | 7.8 | 0.0 | 0.00 | 0.00 | 0.00 | 66 | |
| 20260508121925 | 55 | 360 | 7.8 | 0.0 | 0.00 | 0.00 | 0.00 | 62 | |
| 20260508111927 | 54 | 330 | 6.1 | 0.0 | 0.00 | 0.00 | 0.00 | 66 | |
| 20260508102127 | 54 | 300 | 7.8 | 0.0 | 0.00 | 0.00 | 0.00 | 66 | |
| 20260508091925 | 54 | 310 | 7.8 | 0.0 | 0.00 | 0.00 | 0.00 | 66 | |
| 20260508081925 | 52 | 290 | 6.1 | 0.0 | 0.00 | 0.00 | 0.00 | 71 | |
| 20260508072028 | 48 | 290 | 6.1 | 0.0 | 0.00 | 0.00 | 0.00 | 81 | |
| 20260508061927 | 46 | 360 | 4.3 | 0.0 | 0.00 | 0.00 | 0.00 | 87 | |
| 20260508051925 | 46 | 330 | 4.3 | 0.0 | 0.00 | 0.00 | 0.00 | 87 | |
| 20260508042129 | 46 | 330 | 4.3 | 0.0 | 0.00 | 0.00 | 0.00 | 87 |